Lapse_Rate
7.0 7.1 6.9 6.8 6.8 6.8 6.7 6.8 7.0 7.0 6.9 6.7 6.5 6.5 6.6 6.5 6.5 6.5 6.4 6.4 6.2 6.2
6.5 6.6 6.5 6.6 6.7 6.8 6.8 6.8 6.8 7.0 6.8 6.7 6.6 6.4 6.5 6.5 6.4 6.4 6.5 6.4 6.4 6.3
6.6 6.7 6.6 6.5 6.7 6.9 6.8 6.8 6.8 6.8 6.8 6.7 6.7 6.7 6.5 6.5 6.5 6.3 6.5 6.4 6.4 6.3
6.0 6.0 6.3 6.5 6.8 6.9 6.7 6.5 6.7 6.7 6.7 6.7 6.7 6.6 6.5 6.5 6.3 6.4 6.5 6.4 6.5 6.3
5.8 6.5 6.9 7.0 6.6 6.6 6.6 6.6 6.5 6.6 6.6 6.6 6.7 6.6 6.5 6.5 6.5 6.5 6.4 6.4 6.3 6.3
6.8 6.9 6.9 6.9 6.7 6.6 6.7 6.6 6.5 6.6 6.7 6.7 6.6 6.5 6.5 6.5 6.4 6.4 6.5 6.4 6.3 6.2
6.7 6.7 6.8 7.0 7.2 7.1 6.9 6.8 6.7 6.8 6.8 6.8 6.7 6.6 6.5 6.5 6.4 6.4 6.3 6.3 6.2 6.0
7.1 7.2 7.3 7.2 7.1 7.1 7.0 7.0 7.0 7.0 6.9 6.9 6.9 6.7 6.6 6.6 6.4 6.4 6.3 6.1 6.0 6.0
7.0 7.0 7.1 7.1 7.1 7.1 7.2 7.2 7.2 7.2 7.1 7.0 6.9 6.8 6.5 6.6 6.4 6.3 6.1 6.2 6.2 6.2
7.1 7.1 7.1 7.2 7.2 7.1 7.0 7.0 7.1 7.2 7.2 6.7 6.7 6.5 6.5 6.4 6.1 6.0 5.9 6.1 6.5 6.5
7.1 7.2 7.2 7.1 7.0 7.1 6.9 6.9 6.9 7.0 6.8 6.7 6.6 6.5 6.3 6.3 6.2 6.3 6.1 6.3 6.5 6.7
7.0 7.0 6.9 6.9 7.0 6.9 6.9 7.0 7.1 7.0 6.8 6.6 6.4 6.2 6.1 6.0 6.1 6.1 6.4 6.4 6.6 6.7
6.8 6.9 7.0 7.0 7.0 7.2 7.3 7.4 7.2 7.0 6.7 6.5 6.3 6.1 6.0 6.1 6.3 6.3 6.4 6.4 6.4 6.6
6.7 6.7 6.8 6.8 7.0 7.2 7.3 7.3 7.1 6.8 6.3 6.2 5.9 5.9 6.0 6.2 6.2 6.3 6.3 6.4 6.5 6.6
Wind_Speed
7 4 4 5 3 4 3 3 5 4 3 3 4 4 5 3 4 2 3 3 2 1
5 6 6 6 4 3 4 3 3 3 3 3 3 3 4 3 4 3 3 0 1 1
6 6 6 5 5 5 4 3 2 3 3 3 3 4 4 3 3 3 2 2 2 2
6 6 6 5 5 5 3 3 2 2 2 2 3 4 4 3 4 3 2 3 3 3
6 6 6 6 5 3 4 3 3 2 2 3 3 3 3 1 2 3 3 2 5 4
6 6 6 6 6 4 3 3 1 1 3 4 3 3 4 3 4 5 6 6 6 5
7 6 6 6 5 4 3 2 2 3 4 3 3 2 2 4 6 6 6 7 6 6
6 6 6 5 4 3 4 3 3 1 2 1 1 2 2 3 5 6 6 6 5 5
6 6 6 6 5 4 3 2 2 2 3 3 3 3 2 5 5 6 5 5 5 4
6 6 6 6 5 4 4 3 2 4 3 4 4 4 5 9 5 5 5 3 4 4
6 6 6 5 5 4 4 4 3 4 4 5 4 6 8 11 6 4 2 3 2 4
6 7 6 5 5 4 4 4 3 3 5 6 4 7 7 7 4 4 4 2 3 4
7 7 6 6 6 4 3 3 3 3 3 6 5 7 6 5 3 4 3 2 3 4
6 6 6 5 3 4 4 4 4 5 4 4 5 6 8 6 1 2 3 3 3 3
Wind_Direction
103 103 92 85 86 85 79 80 68 57 32 25 10 347 333 319 294 203 42 351 317 31
104 115 119 93 91 93 93 85 63 42 30 10 357 348 330 316 334 356 117 58 305 121
139 103 99 108 117 98 89 85 53 50 37 18 2 355 339 337 348 321 78 38 7 50
120 113 122 126 111 117 118 82 67 56 25 36 31 357 348 38 1 352 93 67 88 66
132 140 139 124 115 101 101 108 75 51 32 54 40 6 6 45 26 91 83 83 77 56
145 152 134 126 122 109 93 87 99 58 51 45 46 23 17 27 78 74 68 63 68 50
157 150 134 121 118 106 74 45 63 55 49 50 46 25 30 79 83 78 68 66 61 57
137 122 114 121 113 104 103 70 56 65 84 26 39 73 62 89 106 101 88 81 77 66
140 140 140 138 137 124 106 112 144 120 107 94 82 71 91 98 92 95 102 104 102 86
155 156 150 138 129 141 159 154 165 143 154 122 101 131 123 104 96 118 123 140 126 120
156 146 133 135 157 162 160 173 171 174 140 112 127 134 131 121 111 114 145 154 146 126
153 146 145 164 177 172 162 168 171 139 130 136 146 155 141 127 148 141 127 102 69 69
156 152 152 174 179 165 156 148 134 140 151 179 171 179 177 171 160 155 140 162 140 114
148 145 153 157 153 154 150 152 165 174 190 205 189 193 187 186 135 138 158 168 182 175